Weather reports worldwide

Advertisment
Baruth, Germany (10376): temperature & dewpoint: 10.07.2020 05:00:00 - 16.07.2020 05:00:00 (CEST)Baruth, Germany (10376): temperature 5cm & temperature -5cm: 10.07.2020 05:00:00 - 16.07.2020 05:00:00 (CEST)Baruth, Germany (10376): temperature -20cm & temperature -100cm: 10.07.2020 05:00:00 - 16.07.2020 05:00:00 (CEST)Baruth, Germany (10376): wind speed & gusts: 10.07.2020 05:00:00 - 16.07.2020 05:00:00 (CEST)Baruth, Germany (10376): wind direction: 10.07.2020 05:00:00 - 16.07.2020 05:00:00 (CEST)Baruth, Germany (10376): reduced air pressure: 10.07.2020 05:00:00 - 16.07.2020 05:00:00 (CEST)Baruth, Germany (10376): visibility: 10.07.2020 05:00:00 - 16.07.2020 05:00:00 (CEST)Baruth, Germany (10376): sunshine duration: 10.07.2020 05:00:00 - 16.07.2020 05:00:00 (CEST)Baruth, Germany (10376): precipitation: 10.07.2020 05:00:00 - 16.07.2020 05:00:00 (CEST)
Date & Time tt [°C] td [°C] tt 5cm [°C] tt -5cm [°C] tt -20cm [°C] tt -100cm [°C] ff [km/h] ff [kn] fx [km/h] fx [kn] dd ppp [hPa] vv [km] sd [min] rr [mm]
16.07.2020 05:00:00 12,8 12,5 12,7 17,0 18,5 17,9 6 4 11 6 W 1014,4 4,5 0 0,0
16.07.2020 04:00:00 13,9 13,6 13,8 17,3 18,7 17,9 8 5 17 9 WNW 1014,2 6 0 0,0
16.07.2020 03:00:00 14,4 14,1 14,3 17,5 19,0 17,9 10 5 20 11 WNW 1014,2 6 0 0,0
16.07.2020 02:00:00 14,5 14,3 14,2 17,6 19,2 17,9 8 5 15 8 WNW 1014,1 7 0 0,0
16.07.2020 01:00:00 14,2 14,0 14,1 17,9 19,6 17,9 8 4 10 6 W 1014,1 3,5 0 0,0
16.07.2020 00:00:00 14,5 14,4 13,9 18,4 19,9 17,9 8 4 11 6 W 1013,9 5 0 0,0
15.07.2020 23:00:00 14,8 14,6 14,7 18,9 20,2 17,9 2 1 5 3 W 1013,7 9 0 0,0
15.07.2020 22:00:00 14,9 14,6 14,4 19,4 20,5 17,9 3 2 5 3 W 1013,5 4,0 0 0,0
15.07.2020 21:00:00 15,2 14,8 15,0 20,0 20,8 17,8 4 2 9 5 W 1013,1 18 0 0,0
15.07.2020 20:00:00 16,4 14,7 16,2 20,5 20,9 17,8 6 4 15 8 NW 1013,1 49 20 0,0
15.07.2020 19:00:00 16,4 14,8 16,5 20,4 20,9 17,8 8 4 14 8 NW 1012,6 50 0 0,0
15.07.2020 18:00:00 16,1 15,0 16,4 20,2 21,0 17,8 5 3 12 7 NW 1012,5 21 0 0,4
15.07.2020 17:00:00 16,0 15,3 16,4 20,0 21,3 17,8 4 2 11 6 NW 1012,6 23 0 1,5
15.07.2020 16:00:00 15,1 14,7 15,4 20,3 21,8 17,8 7 4 18 10 WNW 1012,8 11 0 9,3
15.07.2020 15:00:00 15,2 14,9 15,3 21,6 22,3 17,8 10 5 19 10 NW 1012,5 4,0 0 4,0
15.07.2020 14:00:00 15,7 14,6 15,6 22,6 22,5 17,7 10 6 17 9 W 1012,6 15 0 0,3
15.07.2020 13:00:00 17,2 15,2 17,6 22,9 22,5 17,7 4 2 16 8 NNW 1012,3 21 0 0,2
15.07.2020 12:00:00 16,9 14,0 16,8 23,4 22,4 17,7 11 6 22 12 NW 1012,4 18 0 0,0
15.07.2020 11:00:00 18,9 13,2 20,2 23,2 22,1 17,7 9 5 19 11 WNW 1011,8 48 13 0,0
15.07.2020 10:00:00 18,8 13,5 21,3 22,2 21,9 17,6 10 5 19 11 WNW 1011,4 60 2 0,0
15.07.2020 09:00:00 18,7 12,5 19,8 21,7 21,9 17,6 8 4 17 9 NW 1011,3 55 27 0,0
15.07.2020 08:00:00 17,4 13,4 17,9 21,1 22,0 17,6 6 3 13 7 W 1011,4 63 0 0,0
15.07.2020 07:00:00 16,6 12,8 16,8 21,2 22,3 17,5 4 2 10 5 WNW 1011,4 50 7 0,0
15.07.2020 06:00:00 16,0 12,2 15,6 21,4 22,7 17,5 4 2 13 7 NW 1011,2 48 2 0,0
15.07.2020 05:00:00 16,3 11,8 15,7 21,9 23,1 17,5 8 5 16 9 WNW 1011,4 57 0 0,0
15.07.2020 04:00:00 17,1 11,7 16,2 22,5 23,5 17,5 6 4 17 9 NW 1011,3 54 0 0,0
15.07.2020 03:00:00 17,7 11,5 17,2 23,1 24,0 17,4 8 5 18 10 WNW 1011,5 50 0 0,0
15.07.2020 02:00:00 18,5 12,0 17,6 23,8 24,5 17,4 9 5 22 12 WNW 1011,6 53 0 0,0
15.07.2020 01:00:00 19,2 12,8 18,7 24,4 25,0 17,4 14 7 22 12 W 1011,5 55 0 0,0
15.07.2020 00:00:00 20,3 9,4 19,4 25,1 25,5 17,3 10 5 13 7 SE 1010,5 71 0 0,0
14.07.2020 23:00:00 20,9 9,8 19,6 26,1 26,0 17,3 10 5 13 7 ESE 1010,7 62 0 0,0
14.07.2020 22:00:00 22,5 9,5 20,7 27,1 26,5 17,3 9 5 12 6 ESE 1010,6 62 0 0,0
14.07.2020 21:00:00 23,9 10,3 22,4 28,2 26,9 17,3 7 4 10 6 ESE 1010,7 61 7 0,0
14.07.2020 20:00:00 25,8 10,8 25,2 29,3 27,2 17,3 4 2 14 7 ESE 1010,8 60 18 0,0
14.07.2020 19:00:00 26,1 9,1 26,0 30,4 27,2 17,3 7 4 13 7 SW 1011,1 64 13 0,0
14.07.2020 18:00:00 27,3 8,9 28,6 31,1 26,9 17,3 5 3 24 13 NNE 1011,2 67 38 0,0
14.07.2020 17:00:00 28,4 8,5 32,5 33,6 26,3 17,3 8 5 21 11 ESE 1011,7 51 27 0,0
14.07.2020 16:00:00 28,6 7,0 34,1 34,4 25,5 17,3 10 5 19 10 S 1012,1 57 47 0,0
14.07.2020 15:00:00 28,0 6,5 32,1 34,5 24,6 17,3 13 7 26 14 SSE 1012,7 66 56 0,0
14.07.2020 14:00:00 27,7 7,5 32,4 31,9 23,6 17,2 9 5 24 13 SSW 1013,4 52 41 0,0
14.07.2020 13:00:00 26,3 7,1 29,6 32,0 22,4 17,2 9 5 22 12 S 1014,2 75 51 0,0
14.07.2020 12:00:00 26,0 7,4 30,6 29,9 21,3 17,2 15 8 27 15 S 1014,8 65 59 0,0
14.07.2020 11:00:00 25,8 9,4 29,4 27,1 20,3 17,2 10 5 23 12 SE 1015,5 58 60 0,0
14.07.2020 10:00:00 23,4 10,2 26,3 23,9 19,6 17,2 5 3 14 7 S 1016,1 70 60 0,0
14.07.2020 09:00:00 21,0 10,1 23,4 20,8 19,2 17,1 10 5 15 8 SSW 1016,5 68 60 0,0
14.07.2020 08:00:00 17,2 10,7 18,5 18,0 19,2 17,1 4 2 13 7 ESE 1016,9 54 60 0,0
14.07.2020 07:00:00 13,6 9,0 14,3 16,2 19,6 17,1 8 4 11 6 E 1017,2 67 60 0,0
14.07.2020 06:00:00 9,8 7,9 7,8 16,1 20,1 17,1 6 3 13 7 E 1017,4 46 6 0,0
14.07.2020 05:00:00 11,0 8,5 9,5 16,6 20,6 17,0 9 5 13 7 E 1017,6 56 0 0,0
14.07.2020 04:00:00 11,1 8,6 9,5 17,3 21,2 17,0 8 5 13 7 ESE 1017,8 50 0 0,0
14.07.2020 03:00:00 10,5 8,5 8,1 18,0 21,9 17,0 8 4 14 8 ESE 1018,4 49 0 0,0
14.07.2020 02:00:00 9,9 8,1 8,2 18,9 22,5 17,0 6 3 10 5 ESE 1018,6 41 0 0,0
14.07.2020 01:00:00 11,2 9,0 9,0 20,0 23,2 16,9 5 3 10 5 E 1018,9 54 0 0,0
14.07.2020 00:00:00 12,1 9,6 10,0 21,2 24,0 16,9 4 2 6 3 ESE 1019,3 61 0 0,0
13.07.2020 23:00:00 13,8 10,7 11,4 22,7 24,7 16,9 3 1 5 3 E 1019,7 61 0 0,0
13.07.2020 22:00:00 16,4 10,6 12,4 24,6 25,4 16,9 3 2 7 4 SE 1019,7 53 2 0,0
13.07.2020 21:00:00 20,1 9,9 16,5 27,0 25,8 16,9 2 1 8 4 E 1019,4 62 53 0,0
13.07.2020 20:00:00 23,7 7,9 24,0 29,6 26,0 16,9 5 3 15 8 NW 1019,5 59 60 0,0
13.07.2020 19:00:00 24,1 7,4 26,0 31,6 25,8 16,9 8 4 18 10 W 1019,8 75 60 0,0
13.07.2020 18:00:00 24,8 8,3 27,8 32,9 25,3 16,9 8 4 18 10 W 1020,4 65 60 0,0
13.07.2020 17:00:00 24,4 7,1 28,4 33,5 24,6 17,0 6 4 20 11 W 1021,1 49 60 0,0
13.07.2020 16:00:00 24,0 7,0 28,8 33,2 23,7 17,0 9 5 22 12 W 1021,7 60 60 0,0
13.07.2020 15:00:00 22,6 7,1 25,0 32,3 22,7 17,0 4 2 17 9 W 1022,4 67 45 0,0
13.07.2020 14:00:00 22,5 7,8 25,9 32,0 21,5 17,0 12 7 26 14 WNW 1023,1 70 51 0,0
13.07.2020 13:00:00 22,4 8,1 26,8 29,4 20,3 17,0 10 6 23 12 W 1023,8 67 48 0,0
13.07.2020 12:00:00 21,0 6,8 26,3 28,3 19,0 17,0 8 5 18 10 W 1024,5 58 60 0,0
13.07.2020 11:00:00 20,3 6,9 23,8 25,0 17,8 17,0 10 5 20 11 W 1024,9 59 60 0,0
13.07.2020 10:00:00 19,0 8,1 22,6 21,9 17,0 17,0 4 2 14 8 NW 1025,2 34 60 0,0
13.07.2020 09:00:00 18,1 8,4 20,6 18,4 16,5 17,0 4 2 8 4 SSW 1025,7 64 60 0,0
13.07.2020 08:00:00 14,5 8,6 16,0 15,2 16,4 17,0 3 2 5 3 W 1026,0 60 60 0,0
13.07.2020 07:00:00 9,6 7,1 10,7 12,8 16,7 16,9 2 1 3 2 W 1026,2 37 60 0,0
13.07.2020 06:00:00 5,7 5,5 4,7 12,4 17,2 16,9 2 1 4 2 ESE 1026,2 27 9 0,0
13.07.2020 05:00:00 5,4 5,2 3,7 12,9 17,7 16,9 2 1 4 2 WNW 1026,5 36 0 0,0
13.07.2020 04:00:00 5,5 5,4 4,1 13,6 18,3 16,9 0 0 3 2 N 1026,6 18 0 0,0
13.07.2020 03:00:00 6,5 6,2 4,9 14,3 18,9 16,9 0 0 3 1 N 1026,8 27 0 0,0
13.07.2020 02:00:00 7,0 6,6 5,3 15,2 19,5 16,9 3 2 4 2 W 1026,9 40 0 0,0
13.07.2020 01:00:00 8,7 7,2 6,1 16,2 20,1 16,9 0 0 5 3 N 1026,9 48 0 0,0
13.07.2020 00:00:00 10,5 7,5 7,4 17,4 20,7 16,9 1 1 3 2 SW 1026,7 65 0 0,0
12.07.2020 23:00:00 11,8 7,8 9,9 18,7 21,4 16,9 2 1 6 3 WSW 1026,8 57 0 0,0
12.07.2020 22:00:00 12,8 7,3 9,9 20,2 21,9 16,9 4 2 8 5 W 1026,7 66 0 0,0
12.07.2020 21:00:00 17,7 6,8 15,0 22,2 22,3 16,9 3 2 18 10 N 1026,2 69 23 0,0
12.07.2020 20:00:00 19,2 6,7 18,9 24,2 22,4 16,9 7 4 20 11 N 1025,9 57 36 0,0
12.07.2020 19:00:00 20,1 5,0 20,1 25,5 22,4 16,9 5 3 27 14 NNW 1025,7 75 29 0,0
12.07.2020 18:00:00 20,5 4,6 21,3 25,9 22,3 16,9 10 5 32 17 NW 1025,9 75 21 0,0
12.07.2020 17:00:00 20,5 5,0 22,0 26,6 22,0 17,0 10 5 27 14 NW 1026,1 64 14 0,0
12.07.2020 16:00:00 20,4 5,8 23,6 28,2 21,4 17,0 9 5 34 18 NW 1026,4 75 34 0,0
12.07.2020 15:00:00 21,3 7,2 26,5 27,0 20,7 17,0 13 7 33 18 W 1026,6 75 39 0,0
12.07.2020 14:00:00 20,5 8,9 24,3 24,9 20,1 17,0 10 6 23 12 W 1026,8 60 21 0,0
12.07.2020 13:00:00 18,4 7,4 19,7 25,6 19,3 17,0 11 6 31 17 WNW 1027,0 74 22 0,0
12.07.2020 12:00:00 18,1 7,6 20,1 25,5 18,3 17,0 12 7 27 15 W 1026,9 75 36 0,0
12.07.2020 11:00:00 18,6 7,1 23,4 23,2 17,3 17,0 13 7 29 16 NW 1027,0 75 50 0,0
12.07.2020 10:00:00 17,3 6,9 20,5 21,1 16,5 17,0 10 6 21 11 NW 1027,0 49 60 0,0
12.07.2020 09:00:00 16,1 9,7 18,3 17,7 16,0 17,0 6 3 14 8 W 1027,0 57 60 0,0
12.07.2020 08:00:00 12,9 9,4 14,6 14,6 15,9 17,0 8 4 14 8 W 1026,9 53 56 0,0
12.07.2020 07:00:00 11,2 8,6 11,0 12,4 16,2 17,0 9 5 12 7 W 1026,4 51 60 0,0
12.07.2020 06:00:00 8,1 7,5 6,1 11,8 16,6 17,0 6 3 9 5 W 1026,1 54 11 0,0
12.07.2020 05:00:00 7,2 7,0 4,2 12,2 17,2 17,0 5 3 9 5 W 1025,6 40 0 0,0
12.07.2020 04:00:00 8,8 7,7 4,9 12,9 17,7 17,0 5 3 9 5 W 1025,3 63 0 0,0
12.07.2020 03:00:00 9,3 7,7 5,9 13,5 18,3 17,0 8 4 12 6 W 1025,2 61 0 0,0
12.07.2020 02:00:00 8,8 7,7 5,7 14,3 18,9 17,0 6 3 8 4 W 1025,1 66 0 0,0
12.07.2020 01:00:00 8,3 7,0 6,0 15,3 19,6 17,0 6 3 8 4 W 1025,2 65 0 0,0
12.07.2020 00:00:00 9,7 7,7 7,2 16,3 20,2 17,0 4 2 7 4 WSW 1024,7 58 0 0,0
11.07.2020 23:00:00 12,3 8,2 8,2 17,7 20,9 17,0 6 3 9 5 W 1024,5 65 0 0,0
11.07.2020 22:00:00 14,8 8,6 10,4 19,3 21,5 17,0 6 3 16 9 NW 1024,1 67 0 0,0
11.07.2020 21:00:00 17,2 7,5 15,8 21,4 21,9 17,0 6 4 16 9 NW 1023,6 68 26 0,0
11.07.2020 20:00:00 18,8 6,6 18,4 23,5 22,1 17,0 8 4 18 10 NW 1023,3 71 18 0,0
11.07.2020 19:00:00 19,4 6,4 19,9 24,5 22,2 17,1 9 5 23 12 WNW 1023,0 64 0 0,0
11.07.2020 18:00:00 19,8 5,9 20,4 26,6 22,0 17,1 6 3 22 12 NW 1022,5 75 24 0,0
11.07.2020 17:00:00 19,2 7,3 20,5 27,0 21,6 17,1 11 6 21 12 SW 1022,6 65 27 0,0
11.07.2020 16:00:00 19,2 6,7 20,9 26,8 21,1 17,1 12 7 26 14 WNW 1022,7 65 14 0,0
11.07.2020 15:00:00 20,8 6,7 25,7 28,0 20,2 17,1 9 5 23 13 W 1022,5 55 37 0,0
11.07.2020 14:00:00 19,3 6,7 22,2 27,1 19,2 17,1 12 6 25 14 W 1022,5 75 34 0,0
11.07.2020 13:00:00 18,8 7,1 21,5 25,1 18,2 17,2 13 7 26 14 WNW 1022,5 53 32 0,0
11.07.2020 12:00:00 18,5 6,5 22,0 23,5 17,4 17,2 13 7 24 13 WNW 1022,1 48 43 0,0
11.07.2020 11:00:00 16,7 7,4 18,2 21,3 16,6 17,2 13 7 23 13 W 1021,9 57 34 0,0
11.07.2020 10:00:00 16,4 9,2 19,6 19,4 15,8 17,2 8 4 21 11 W 1021,7 46 52 0,0
11.07.2020 09:00:00 14,5 9,5 17,0 16,3 15,4 17,2 8 5 18 10 W 1021,6 53 59 0,0
11.07.2020 08:00:00 11,4 9,7 10,4 13,1 15,4 17,2 10 5 17 9 W 1021,5 48 2 0,0
11.07.2020 07:00:00 11,0 9,7 10,4 12,2 15,6 17,2 6 3 11 6 W 1020,9 48 9 0,0
11.07.2020 06:00:00 9,2 9,0 7,7 11,5 16,0 17,2 4 2 8 4 W 1020,2 27 0 0,0
11.07.2020 05:00:00 8,6 8,4 6,2 11,7 16,5 17,2 3 1 11 6 SSW 1019,5 31 0 0,0
11.07.2020 04:00:00 10,0 9,5 7,0 12,3 16,9 17,2 4 2 10 6 W 1019,4 48 0 0,0
11.07.2020 03:00:00 9,9 9,3 7,9 12,8 17,4 17,2 5 3 10 5 WSW 1019,3 53 0 0,0
11.07.2020 02:00:00 10,2 9,4 7,7 13,5 17,9 17,2 4 2 10 5 W 1018,8 74 0 0,0
11.07.2020 01:00:00 11,7 10,2 10,3 14,3 18,4 17,2 10 5 17 9 W 1018,0 72 0 0,0
11.07.2020 00:00:00 12,2 10,5 9,8 15,0 19,0 17,2 6 3 22 12 W 1016,9 73 0 0,0
10.07.2020 23:00:00 13,6 10,8 12,1 15,9 19,5 17,2 9 5 29 16 W 1016,4 72 0 0,0
10.07.2020 22:00:00 15,1 10,9 14,0 17,0 20,1 17,2 15 8 35 19 WNW 1015,2 75 0 0,0
10.07.2020 21:00:00 16,3 11,8 16,2 18,4 20,5 17,2 18 10 41 22 NW 1014,1 65 1 0,0
10.07.2020 20:00:00 17,7 12,9 17,7 19,5 20,9 17,2 21 11 52 28 WNW 1012,4 58 0 0,0
10.07.2020 19:00:00 20,9 13,9 20,6 20,7 21,1 17,2 25 14 51 28 W 1010,4 75 0 0,2
10.07.2020 18:00:00 23,9 13,9 23,6 22,1 21,2 17,2 27 15 58 31 W 1008,7 73 0 0,0
10.07.2020 17:00:00 24,3 13,7 24,2 22,3 21,4 17,2 26 14 45 24 W 1008,2 56 0 0,0
10.07.2020 16:00:00 24,8 14,2 24,8 22,8 21,5 17,2 26 14 50 27 W 1007,4 75 0 0,0
10.07.2020 15:00:00 25,2 16,4 25,3 23,8 21,4 17,2 23 12 49 27 W 1006,5 55 0 0,0
10.07.2020 14:00:00 26,6 16,0 26,9 24,8 21,1 17,3 27 15 46 25 W 1005,8 56 0 0,0
10.07.2020 13:00:00 27,8 16,9 29,0 26,8 20,4 17,3 20 11 37 20 SW 1005,3 61 51 0,0
10.07.2020 12:00:00 27,0 17,7 29,4 26,2 19,5 17,3 12 7 24 13 S 1005,8 70 46 0,0
10.07.2020 11:00:00 23,4 18,5 25,0 23,8 18,8 17,3 13 7 21 11 SE 1006,7 52 22 0,0
10.07.2020 10:00:00 21,1 17,5 21,7 22,7 18,1 17,3 9 5 17 9 E 1007,6 39 37 0,0
10.07.2020 09:00:00 19,4 17,5 19,7 19,5 17,8 17,3 8 4 13 7 SE 1008,7 32 13 0,0
10.07.2020 08:00:00 17,8 16,6 17,4 17,5 17,7 17,3 2 1 15 8 SSW 1009,4 33 0 0,0
10.07.2020 07:00:00 16,8 16,4 16,7 16,9 17,7 17,3 5 3 10 6 ESE 1009,1 13 0 0,0
10.07.2020 06:00:00 16,1 15,9 15,9 16,3 17,9 17,3 8 4 11 6 ESE 1010,0 7 0 0,0
10.07.2020 05:00:00 15,9 15,8 15,2 16,2 18,1 17,3 7 4 8 4 ESE 1010,5 9 0 0,0

tt = temperature
td = dewpoint
tt 5cm = temperature 5cm
tt -5cm = temperature -5cm
tt -20cm = temperature -20cm
tt -100cm = temperature -100cm
ff = wind speed
fx = gusts
dd = wind direction
ppp = reduced air pressure
vv = visibility
sd = sunshine duration
rr = precipitation

Next stations